�N����,����,�~����,�C��,���x,�C��,����,���ϕ���,�ő�u�ԕ���,�ő厞����,���˗�,�I�_���x,�n�����x,�ő啗���N��,DTYPE
"20/05/08","00:10",0.0,11.3,80.0,1015.2,292.3,2.0,3.7,349.8,0.00,8.0,15.6,"00:07:20",1
"20/05/08","00:20",0.0,11.3,79.9,1014.9,294.0,1.6,2.5,335.0,0.00,8.0,15.6,"00:11:44",1
"20/05/08","00:30",0.0,11.0,79.8,1014.9,290.0,1.5,2.1,314.8,0.00,7.7,15.6,"00:22:08",1
"20/05/08","00:40",0.0,10.9,79.9,1014.9,287.2,1.6,3.4,332.2,0.00,7.6,15.5,"00:35:52",1
"20/05/08","00:50",0.0,10.8,80.3,1014.9,280.3,1.6,2.2,282.8,0.00,7.6,15.4,"00:48:24",1
"20/05/08","01:00",0.0,10.8,80.6,1014.9,277.7,1.6,2.9,318.4,0.00,7.6,15.3,"00:54:48",1
"20/05/08","01:10",0.0,10.7,80.9,1014.9,273.6,1.6,2.4,268.1,0.00,7.6,15.2,"01:04:16",1
"20/05/08","01:20",0.0,10.6,81.4,1014.9,279.9,1.7,2.7,311.4,0.00,7.6,15.2,"01:13:04",1
"20/05/08","01:30",0.0,10.6,81.7,1015.2,282.9,1.6,2.5,266.5,0.00,7.6,15.1,"01:22:00",1
"20/05/08","01:40",0.0,10.5,82.1,1014.9,305.5,1.8,2.7,317.2,0.00,7.6,15.1,"01:37:44",1
"20/05/08","01:50",0.0,10.6,82.5,1014.9,320.6,2.3,4.4,343.6,0.00,7.8,14.9,"01:46:40",1
"20/05/08","02:00",0.0,10.7,82.8,1014.7,326.9,2.6,3.9,318.5,0.00,7.9,14.8,"01:54:40",1
"20/05/08","02:10",0.0,10.6,83.0,1014.7,325.7,2.3,3.6,334.8,0.00,7.9,14.7,"02:00:08",1
"20/05/08","02:20",0.0,10.7,83.2,1015.2,324.5,3.0,4.2,330.3,0.00,8.0,14.8,"02:12:00",1
"20/05/08","02:30",0.0,10.6,83.4,1014.7,333.4,2.8,3.9,329.2,0.00,7.9,14.9,"02:21:44",1
"20/05/08","02:40",0.0,10.5,83.8,1015.2,332.6,2.7,3.9,323.4,0.00,7.9,14.7,"02:38:24",1
"20/05/08","02:50",0.0,10.6,84.1,1014.7,332.4,3.1,4.3,335.0,0.00,8.1,14.8,"02:43:44",1
"20/05/08","03:00",0.0,10.6,84.4,1014.9,333.4,3.1,4.9,341.2,0.00,8.1,14.8,"02:55:44",1
"20/05/08","03:10",0.0,10.6,84.6,1015.2,332.0,3.4,5.4,335.2,0.00,8.2,14.7,"03:07:44",1
"20/05/08","03:20",0.0,10.5,84.6,1015.2,333.6,3.0,4.9,340.9,0.00,8.1,14.6,"03:14:08",1
"20/05/08","03:30",0.0,10.4,84.9,1014.9,334.3,2.8,4.7,328.3,0.00,8.0,14.7,"03:28:32",1
"20/05/08","03:40",0.0,10.4,85.1,1015.2,332.6,3.0,5.0,341.9,0.00,8.0,14.7,"03:38:00",1
"20/05/08","03:50",0.0,10.6,85.0,1015.2,329.8,4.5,6.5,328.5,0.00,8.2,14.7,"03:45:52",1
"20/05/08","04:00",0.0,10.5,84.9,1015.4,334.2,3.5,4.7,334.1,0.00,8.1,14.6,"03:56:56",1
"20/05/08","04:10",0.0,10.4,84.9,1015.4,335.7,3.1,4.7,338.2,0.00,8.0,14.6,"04:05:12",1
"20/05/08","04:20",0.0,10.3,84.8,1015.2,334.2,3.1,4.9,332.4,0.00,7.9,14.4,"04:13:12",1
"20/05/08","04:30",0.0,10.3,84.6,1015.4,326.6,2.7,4.2,331.6,0.00,7.9,14.6,"04:20:16",1
"20/05/08","04:40",0.0,10.2,84.1,1015.4,328.2,2.1,4.5,330.1,0.00,7.7,14.6,"04:34:24",1
"20/05/08","04:50",0.0,9.8,84.2,1015.4,311.6,2.1,3.1,336.9,0.00,7.3,14.3,"04:43:04",1
"20/05/08","05:00",0.0,9.7,84.1,1015.4,326.3,2.2,3.4,328.8,0.00,7.2,14.4,"04:59:36",1
"20/05/08","05:10",0.0,9.7,83.9,1015.6,312.4,1.8,3.9,342.1,0.00,7.2,14.3,"05:00:08",1
"20/05/08","05:20",0.0,9.5,84.0,1015.2,284.4,1.6,2.5,317.5,0.00,7.0,14.2,"05:19:52",1
"20/05/08","05:30",0.0,9.2,84.3,1015.4,298.7,2.0,2.7,310.1,0.00,6.7,14.3,"05:20:24",1
"20/05/08","05:40",0.0,9.2,84.6,1015.4,292.3,1.6,2.1,313.0,0.00,6.8,14.4,"05:35:28",1
"20/05/08","05:50",0.0,9.3,84.9,1015.4,293.7,1.6,2.4,303.3,0.01,6.9,14.3,"05:49:20",1
"20/05/08","06:00",0.0,10.0,85.4,1015.4,290.9,1.3,2.7,312.8,0.03,7.7,14.2,"05:50:16",1
"20/05/08","06:10",0.0,10.8,84.9,1015.4,289.0,1.2,1.7,301.3,0.04,8.4,14.2,"06:08:00",1
"20/05/08","06:20",0.0,11.1,84.2,1015.6,317.8,1.6,2.1,310.4,0.03,8.6,14.3,"06:10:08",1
"20/05/08","06:30",0.0,12.1,83.2,1016.1,335.1,0.8,1.8,324.4,0.06,9.4,14.3,"06:20:32",1
"20/05/08","06:40",0.0,13.0,81.0,1016.4,302.8,1.0,1.9,317.9,0.08,9.9,14.5,"06:39:04",1
"20/05/08","06:50",0.0,13.7,77.5,1015.9,11.2,0.3,1.0,341.9,0.11,9.9,14.7,"06:40:08",1
"20/05/08","07:00",0.0,14.6,73.5,1015.9,345.5,0.8,1.8,348.0,0.14,10.0,14.9,"06:55:12",1
"20/05/08","07:10",0.0,15.3,69.2,1016.1,311.2,0.8,1.8,341.7,0.17,9.7,14.9,"07:01:36",1
"20/05/08","07:20",0.0,16.1,65.5,1015.6,320.8,0.7,1.4,338.5,0.19,9.7,15.0,"07:14:32",1
"20/05/08","07:30",0.0,16.7,63.7,1015.9,283.1,0.6,1.1,319.0,0.21,9.8,15.2,"07:20:24",1
"20/05/08","07:40",0.0,17.0,61.8,1015.6,275.0,0.6,1.2,66.6,0.24,9.7,15.4,"07:34:32",1
"20/05/08","07:50",0.0,17.4,58.4,1015.6,240.9,0.7,1.6,228.9,0.27,9.2,15.8,"07:47:28",1
"20/05/08","08:00",0.0,18.2,56.5,1015.6,298.3,0.5,1.6,236.1,0.29,9.5,15.9,"07:59:36",1
"20/05/08","08:10",0.0,18.0,55.1,1015.4,204.6,0.7,1.6,224.5,0.32,8.9,16.1,"08:05:52",1
"20/05/08","08:20",0.0,18.3,53.9,1015.2,162.0,1.2,2.6,211.6,0.35,8.9,16.5,"08:13:36",1
"20/05/08","08:30",0.0,18.7,52.8,1015.2,175.4,1.1,2.7,179.5,0.37,8.9,16.7,"08:20:48",1
"20/05/08","08:40",0.0,19.3,52.9,1015.2,145.3,0.8,2.4,125.5,0.40,9.5,17.0,"08:35:04",1
"20/05/08","08:50",0.0,19.7,51.1,1015.2,221.5,0.6,1.7,189.4,0.38,9.4,17.4,"08:48:00",1
"20/05/08","09:00",0.0,19.7,50.2,1014.9,181.9,1.3,2.9,190.7,0.44,9.1,17.5,"08:55:20",1
"20/05/08","09:10",0.0,20.0,51.1,1014.9,202.5,1.1,2.9,209.1,0.46,9.6,17.8,"09:07:44",1
"20/05/08","09:20",0.0,20.5,51.3,1014.9,181.9,1.0,2.8,194.8,0.48,10.2,18.1,"09:17:04",1
"20/05/08","09:30",0.0,20.4,49.1,1014.9,169.3,1.6,3.7,102.6,0.51,9.4,18.3,"09:27:12",1
"20/05/08","09:40",0.0,20.8,48.9,1015.2,121.7,1.5,3.4,122.1,0.53,9.7,18.7,"09:39:04",1
"20/05/08","09:50",0.0,21.3,46.6,1014.9,149.5,1.5,2.9,190.9,0.52,9.5,19.1,"09:46:24",1
"20/05/08","10:00",0.0,21.5,47.9,1014.7,167.0,1.7,3.7,113.8,0.54,10.0,19.4,"09:55:52",1
"20/05/08","10:10",0.0,21.7,46.4,1014.9,137.4,2.0,4.7,130.3,0.55,9.8,19.8,"10:07:44",1
"20/05/08","10:20",0.0,22.2,45.4,1014.5,155.8,2.1,5.2,152.5,0.62,9.9,20.0,"10:14:16",1
"20/05/08","10:30",0.0,22.0,46.4,1014.5,154.6,1.8,3.7,183.1,0.48,10.0,20.3,"10:26:32",1
"20/05/08","10:40",0.0,22.2,46.3,1014.5,114.6,2.1,4.0,122.9,0.54,10.2,20.8,"10:38:56",1
"20/05/08","10:50",0.0,22.9,44.0,1014.2,171.6,2.0,4.5,220.6,0.60,10.1,20.9,"10:43:12",1
"20/05/08","11:00",0.0,23.2,42.0,1013.8,198.8,2.2,4.4,117.1,0.60,9.6,21.1,"10:50:48",1
"20/05/08","11:10",0.0,23.1,43.1,1013.8,187.4,2.5,4.7,143.0,0.53,9.9,21.5,"11:01:04",1
"20/05/08","11:20",0.0,23.8,41.2,1014.0,139.6,2.3,5.8,122.5,0.61,9.9,21.8,"11:19:36",1
"20/05/08","11:30",0.0,23.8,41.7,1013.8,159.1,2.6,5.6,130.4,0.58,10.1,22.1,"11:21:20",1
"20/05/08","11:40",0.0,24.1,36.4,1013.5,193.4,2.3,7.4,207.6,0.56,8.3,22.2,"11:35:28",1
"20/05/08","11:50",0.0,23.8,36.5,1013.5,254.0,2.1,4.5,228.2,0.38,8.1,22.3,"11:44:48",1
"20/05/08","12:00",0.0,23.8,36.0,1013.0,267.3,1.7,4.5,212.0,0.38,7.9,22.4,"11:59:44",1
"20/05/08","12:10",0.0,23.9,36.8,1013.0,213.0,2.8,5.6,222.9,0.50,8.3,22.4,"12:03:20",1
"20/05/08","12:20",0.0,24.2,36.5,1013.0,247.5,1.6,4.3,238.5,0.38,8.4,22.7,"12:11:28",1
"20/05/08","12:30",0.0,23.8,36.8,1012.8,252.5,1.8,4.2,211.8,0.43,8.2,22.7,"12:29:04",1
"20/05/08","12:40",0.0,25.2,34.4,1012.6,270.6,1.5,3.6,209.7,0.65,8.5,22.9,"12:39:36",1
"20/05/08","12:50",0.0,25.4,36.1,1012.3,178.3,2.2,5.1,139.0,0.63,9.3,22.8,"12:49:04",1
"20/05/08","13:00",0.0,25.0,37.0,1012.1,164.3,3.0,5.8,120.9,0.61,9.4,23.1,"12:51:52",1
"20/05/08","13:10",0.0,25.1,37.6,1011.6,180.5,3.1,6.3,227.0,0.60,9.7,23.1,"13:06:00",1
"20/05/08","13:20",0.0,25.6,39.0,1011.9,177.1,2.2,4.8,139.2,0.60,10.7,22.8,"13:12:32",1
"20/05/08","13:30",0.0,25.5,38.9,1011.2,210.6,2.7,5.7,194.1,0.59,10.5,23.0,"13:24:24",1
"20/05/08","13:40",0.0,25.7,40.6,1011.4,185.3,2.6,5.4,163.0,0.57,11.4,22.9,"13:36:00",1
"20/05/08","13:50",0.0,25.5,41.0,1011.2,179.3,3.0,5.9,222.6,0.57,11.3,23.1,"13:41:20",1
"20/05/08","14:00",0.0,24.9,40.2,1011.6,182.5,2.1,5.6,131.9,0.34,10.5,22.9,"13:58:16",1
"20/05/08","14:10",0.0,25.3,40.5,1010.9,170.5,2.1,4.0,160.5,0.52,11.0,23.0,"14:00:08",1
"20/05/08","14:20",0.0,26.3,38.7,1010.9,253.7,1.3,3.4,320.0,0.53,11.2,23.3,"14:12:40",1
"20/05/08","14:30",0.0,25.9,40.2,1011.2,194.2,2.0,7.1,229.4,0.51,11.4,23.2,"14:27:44",1
"20/05/08","14:40",0.0,25.8,41.2,1010.7,180.4,2.2,6.8,191.3,0.45,11.7,23.3,"14:31:36",1
"20/05/08","14:50",0.0,25.0,40.8,1010.4,215.2,2.7,5.2,219.0,0.33,10.8,23.3,"14:43:44",1
"20/05/08","15:00",0.0,24.9,41.7,1010.9,216.2,2.2,4.7,210.1,0.35,11.1,23.4,"14:51:12",1
"20/05/08","15:10",0.0,24.4,44.9,1011.2,165.5,1.6,3.9,181.6,0.15,11.7,23.3,"15:07:44",1
"20/05/08","15:20",0.0,24.4,46.2,1011.4,215.8,2.2,6.2,224.6,0.24,12.1,23.2,"15:13:36",1
"20/05/08","15:30",0.0,24.3,44.0,1011.4,190.5,2.3,5.1,137.1,0.23,11.3,23.2,"15:28:40",1
"20/05/08","15:40",0.0,24.4,45.7,1011.4,220.1,2.2,5.7,222.2,0.22,12.0,23.2,"15:31:28",1
"20/05/08","15:50",0.0,24.1,45.7,1011.2,207.8,3.0,5.5,229.1,0.23,11.7,23.2,"15:42:00",1
"20/05/08","16:00",0.0,23.6,48.0,1011.4,223.3,2.8,5.0,218.9,0.12,12.0,23.1,"15:58:08",1
"20/05/08","16:10",0.0,24.7,46.1,1011.6,241.8,2.0,4.2,232.9,0.27,12.4,23.0,"16:00:32",1
"20/05/08","16:20",0.0,24.5,46.0,1011.6,248.5,2.2,5.0,234.8,0.23,12.2,22.7,"16:18:56",1
"20/05/08","16:30",0.0,24.0,47.6,1011.4,242.2,2.7,5.2,223.8,0.22,12.2,22.7,"16:22:16",1
"20/05/08","16:40",0.0,23.6,48.1,1011.6,234.2,2.7,5.5,228.1,0.20,12.0,22.4,"16:37:44",1
"20/05/08","16:50",0.0,23.2,48.8,1011.6,245.6,2.6,5.5,227.0,0.13,11.9,22.5,"16:42:00",1
"20/05/08","17:00",0.0,22.8,50.4,1011.6,266.7,2.2,4.1,227.9,0.09,12.0,22.5,"16:57:20",1
"20/05/08","17:10",0.0,22.2,52.0,1011.9,248.3,2.5,4.2,316.9,0.06,11.9,22.4,"17:07:20",1
"20/05/08","17:20",0.0,21.8,53.2,1012.1,253.1,2.5,4.5,235.4,0.03,11.9,22.1,"17:17:12",1
"20/05/08","17:30",0.0,21.4,54.5,1012.3,257.8,2.1,4.5,276.5,0.01,11.9,22.2,"17:24:08",1
"20/05/08","17:40",0.0,21.1,55.9,1012.6,265.6,2.3,5.5,324.9,0.02,12.0,21.8,"17:36:32",1
"20/05/08","17:50",0.0,20.9,57.3,1012.3,282.9,1.8,4.4,238.5,0.02,12.2,21.8,"17:41:36",1
"20/05/08","18:00",0.0,20.7,58.0,1012.8,269.8,1.8,3.2,241.1,0.01,12.2,21.7,"17:53:12",1
"20/05/08","18:10",0.0,20.6,58.7,1013.0,271.9,2.0,5.9,253.1,0.00,12.3,21.5,"18:01:52",1
"20/05/08","18:20",0.0,20.4,59.2,1013.3,287.5,2.1,4.2,352.4,0.00,12.2,21.3,"18:13:36",1
"20/05/08","18:30",0.0,20.2,59.7,1013.3,284.0,1.6,5.1,248.6,0.00,12.2,21.3,"18:29:20",1
"20/05/08","18:40",0.0,20.0,60.2,1013.3,288.9,1.7,5.2,345.8,0.00,12.1,20.9,"18:31:28",1
"20/05/08","18:50",0.0,19.9,60.3,1013.0,305.6,2.0,3.9,348.1,0.00,12.0,20.9,"18:42:08",1
"20/05/08","19:00",0.0,19.8,60.3,1013.3,305.0,1.5,3.2,327.3,0.00,11.9,20.9,"18:56:56",1
"20/05/08","19:10",0.0,19.7,60.3,1013.5,304.3,1.2,2.9,333.4,0.00,11.8,20.7,"19:00:48",1
"20/05/08","19:20",0.0,19.7,60.5,1014.0,313.9,1.0,2.4,348.5,0.00,11.9,20.4,"19:18:08",1
"20/05/08","19:30",0.0,19.5,60.6,1014.0,279.4,0.7,1.8,269.0,0.00,11.7,20.5,"19:20:02",1
"20/05/08","19:40",0.0,19.5,60.9,1014.5,313.2,0.8,2.0,348.8,0.00,11.8,20.5,"19:36:00",1
"20/05/08","19:50",0.0,19.5,61.5,1014.2,322.1,1.1,2.2,346.6,0.00,12.0,20.2,"19:49:20",1
"20/05/08","20:00",0.0,19.3,61.4,1014.5,320.9,1.1,2.8,346.9,0.00,11.7,20.2,"19:54:40",1
"20/05/08","20:10",0.0,19.3,61.9,1014.7,326.6,1.2,2.1,338.9,0.00,11.9,20.2,"20:00:48",1
"20/05/08","20:20",0.0,19.2,62.3,1014.9,336.6,1.6,2.6,318.3,0.00,11.9,20.0,"20:16:48",1
"20/05/08","20:30",0.0,19.3,62.8,1015.2,310.3,1.2,2.2,340.5,0.00,12.1,19.9,"20:20:08",1
"20/05/08","20:40",0.0,19.2,63.4,1015.4,327.7,1.5,2.7,342.5,0.00,12.1,19.7,"20:36:48",1
"20/05/08","20:50",0.0,19.2,63.9,1014.9,311.2,1.2,2.2,326.5,0.00,12.2,19.8,"20:41:04",1
"20/05/08","21:00",0.0,19.0,64.2,1015.4,262.2,0.5,1.2,320.6,0.00,12.1,19.7,"20:59:52",1
"20/05/08","21:10",0.0,19.0,64.9,1015.2,311.5,1.3,2.7,286.0,0.00,12.3,19.5,"21:08:16",1
"20/05/08","21:20",0.0,19.0,65.4,1015.2,318.6,1.2,3.5,334.9,0.00,12.4,19.6,"21:10:32",1
"20/05/08","21:30",0.0,19.0,65.9,1015.4,270.8,1.0,1.9,312.1,0.00,12.5,19.7,"21:24:56",1
"20/05/08","21:40",0.0,18.9,66.2,1015.2,249.3,0.8,2.4,244.7,0.00,12.5,19.3,"21:38:16",1
"20/05/08","21:50",0.0,18.9,66.2,1015.2,237.4,1.3,3.1,210.8,0.00,12.5,19.3,"21:41:04",1
"20/05/08","22:00",0.0,18.8,66.4,1015.4,245.4,1.5,2.8,235.1,0.00,12.5,19.4,"21:51:28",1
"20/05/08","22:10",0.0,18.4,66.6,1015.2,270.5,0.7,1.9,259.0,0.00,12.1,19.3,"22:00:56",1
"20/05/08","22:20",0.0,18.2,67.2,1015.4,305.6,1.0,1.9,325.7,0.00,12.1,19.1,"22:13:20",1
"20/05/08","22:30",0.0,18.1,67.9,1015.4,305.2,1.1,1.7,298.0,0.00,12.1,19.1,"22:24:32",1
"20/05/08","22:40",0.0,18.1,68.4,1015.2,283.3,1.3,2.4,294.4,0.00,12.2,19.1,"22:38:16",1
"20/05/08","22:50",0.0,18.2,68.4,1014.9,278.3,1.2,3.1,294.8,0.00,12.3,19.0,"22:41:36",1
"20/05/08","23:00",0.0,18.0,68.4,1014.9,285.7,1.1,2.1,329.9,0.00,12.1,18.7,"22:57:44",1
"20/05/08","23:10",0.0,17.6,68.8,1015.2,306.0,0.6,1.2,319.3,0.00,11.8,18.8,"23:09:04",1
"20/05/08","23:20",0.0,17.5,69.5,1014.9,332.8,1.1,1.8,341.0,0.00,11.9,18.7,"23:17:12",1
"20/05/08","23:30",0.0,16.9,70.6,1014.7,327.0,1.1,2.1,328.0,0.00,11.6,18.6,"23:25:20",1
"20/05/08","23:40",0.0,16.6,72.1,1014.7,330.9,1.0,1.4,321.2,0.00,11.6,18.7,"23:36:00",1
"20/05/08","23:50",0.0,16.5,73.7,1014.7,331.1,1.0,1.3,343.2,0.00,11.8,18.3,"23:43:28",1
"20/05/08","24:00",0.0,16.2,75.3,1014.5,315.8,1.2,1.8,312.8,0.00,11.9,18.2,"23:58:16",1
